Regional Weather Roundup
Issued by NWS

Home | Current Version | Previous Version | Graphics & Text | Print | Product List | Glossary On
Versions: 1 2 3 4 5 6 7 8 9 10 11 12 13 14 15 16 17 18 19 20 21 22 23 24 25 26 27 28 29 30 31 32 33 34 35 36 37 38 39 40 41 42 43 44 45 46 47 48 49
000
ASUS45 KTFX 291110
RWRMT
MONTANA REGIONAL WEATHER ROUNDUP
NATIONAL WEATHER SERVICE GREAT FALLS MT
500 AM MDT FRI MAY 29 2015

NOTE: "FAIR" INDICATES FEW OR NO CLOUDS BELOW 12000 FEET WITH NO
SIGNIFICANT WEATHER AND/OR OBSTRUCTIONS TO VISIBILITY.

MTZ001>007-043-291200-
WEST OF THE DIVIDE

CITY           SKY/WX    TMP DP  RH WIND       PRES   REMARKS
KALISPELL      CLOUDY    49  43  80 CALM      30.19S
MISSOULA       CLEAR     51  41  68 SE12      30.20F
BUTTE          CLOUDY    45  42  89 S7        30.27F
MULLAN PASS    FOG       42  42 100 SE9       30.20S VSB 3/4
DEER LODGE       N/A     46  43  87 CALM      30.29F
EUREKA           N/A     46  45  93 CALM      30.19S
HAMILTON         N/A     45  43  93 S6        30.20S
LIBBY            N/A     50  48  93 CALM      30.18F
PLAINS           N/A     47  43  86 CALM      30.16F
RONAN            N/A     44  42  93 NE3       30.20F
$$

MTZ008-052>055-291200-
SOUTHWEST MONTANA

CITY           SKY/WX    TMP DP  RH WIND       PRES   REMARKS
BOZEMAN        CLOUDY    48  45  89 SW6       30.28R
DILLON         CLOUDY    46  43  89 NE5       30.25F
W YELLOWSTONE  CLEAR     32  32 100 CALM      30.29S
THREE FORKS      N/A     49  26  41 CALM      30.24S
TWIN BRIDGES     N/A     48  42  80 N10       30.21F
$$

MTZ009-010-012-014-046-048-049-054-291200-
EAST SLOPES AND CENTRAL MONTANA

CITY           SKY/WX    TMP DP  RH WIND       PRES   REMARKS
CUT BANK       FOG       34  34 100 CALM      30.27F VSB 1/4
GREAT FALLS    CLOUDY    45  44  97 CALM      30.29F FOG
MALMSTROM AFB  CLOUDY    45  45  99 S2        30.30F
HELENA         CLOUDY    49  43  80 W5        30.28F
CONRAD           N/A     35  35 100 CALM      30.28F
$$

MTZ011-013-016-021-045-047-050-051-291200-
NORTH CENTRAL MONTANA

CITY           SKY/WX    TMP DP  RH WIND       PRES   REMARKS
HAVRE          CLEAR     35  35 100 CALM      30.30F
LEWISTOWN      CLOUDY    45  40  82 NW3       30.30S
N BAR RANCH    CLOUDY    43  39  87 NE6       30.32S
CHINOOK          N/A     37  37 100 CALM      30.32S
FORT BENTON      N/A     46  43  87 CALM      30.31S
$$

MTZ017>020-022>027-061-062-291200-
NORTHEAST MONTANA

CITY           SKY/WX    TMP DP  RH WIND       PRES   REMARKS
GLASGOW        CLEAR     35  32  88 NE7       30.29R WCI  29
JORDAN           N/A     39  37  92 N7        30.28R
SIDNEY         CLOUDY    43  30  61 NW12      30.25R
WOLF POINT     CLEAR     36  32  85 N6        30.30S WCI  31
MALTA            N/A     36  30  79 CALM      30.26S
PLENTYWOOD       N/A     37  34  87 N7        30.28R
POPLAR           N/A     34  32  93 CALM      30.31R
SCOBEY           N/A     30  25  82 N3        30.24S
$$

MTZ028>42-056>058-291200-
SOUTHCENTRAL AND SOUTHEAST MONTANA

CITY           SKY/WX    TMP DP  RH WIND       PRES   REMARKS
BAKER          CLOUDY    45  39  79 N16       30.22R
BILLINGS       CLOUDY    47  44  90 NE13      30.28R
LIVINGSTON     LGT RAIN  48  47  96 E7        30.27S FOG
MILES CITY     MOCLDY    43  36  76 N14       30.27R
BIG TIMBER       N/A     46  45  93 NE5       30.29S
EKALAKA          N/A     42  38  86 N10       30.16R
LAUREL           N/A     47  43  86 N5        30.25R
ROUNDUP          N/A     46  38  74 N8        30.18S
$$

REGIONAL REPORTS...DAKOTAS

CITY           SKY/WX    TMP DP  RH WIND       PRES   REMARKS
WILLISTON      CLOUDY    45  32  60 N15G22    30.25R
MINOT          CLOUDY    46  37  71 N15       30.17R
DICKINSON      CLOUDY    44  42  93 N15G23    30.16R FOG
BEACH          CLOUDY    43  39  87 N13       30.23R
CROSBY         CLOUDY    43  34  70 N16G22    30.26R
WATFORD CITY   CLOUDY    45  36  70 N12       30.21R
BISMARCK       CLOUDY    51  46  83 N15G23    30.10R
GRAND FORKS    CLOUDY    47  43  86 N28G38    30.01R
FARGO          CLOUDY    52  48  86 N26G36    29.94R
BUFFALO SD       N/A     47  45  93 N18       30.08R
RAPID CITY     CLOUDY    55  53  93 N20       30.07R
$$

REGIONAL REPORTS...WYOMING/IDAHO/WASHINGTON

CITY           SKY/WX    TMP DP  RH WIND       PRES   REMARKS
GILLETTE       RAIN      48  46  93 N17       30.18R
SHERIDAN       HVY RAIN  49  47  93 NW10      30.23R FOG
BUFFALO WY     LGT RAIN  47  43  86 NW10      30.21R
CODY           CLOUDY    48  46  93 N7        30.26R
YELLOWSTONE LA   N/A     31  29  92 CALM      30.34R
IDAHO FALLS    CLEAR     41  40  96 N6        30.22F
SALMON         PTCLDY    43  39  87 CALM      30.21S
BOISE          CLEAR     58  46  64 SE9       30.08R
SPOKANE        MOCLDY    57  51  80 E10       30.06F
$$

REGIONAL REPORTS...ALBERTA

CITY           SKY/WX    TMP DP  RH WIND       PRES   REMARKS
EDMONTON       CLEAR     32  27  80 E2        30.30F
CALGARY        CLOUDY    45  37  76 SE12      30.23F
LETHBRIDGE     CLEAR     34  34 100 S9        30.27S FOG     WCI  26
MEDICINE HAT   CLEAR     34  34 100 CALM      30.31F
$$

REGIONAL REPORTS...SASKATCHEWAN

CITY           SKY/WX    TMP DP  RH WIND       PRES   REMARKS
SWIFT CURRENT  CLEAR     28  27  93 SE7       30.32S WCI  21
REGINA         CLOUDY    41  30  65 N8        30.32S
SASKATOON      PTCLDY    30  28  93 NE2       30.39R
$$


USA.gov is the U.S. government's official web portal to all federal, state and local government web resources and services.